sat.trackr.live / text

‹ back to catalog

WSF-M

NORAD 59481 · 2024-070A

PAYLOAD ACTIVE UNKNOWN

§ Identity

Operator
Country
US
Launch date
2024-04-11
Launch site
AFWTR
Launch vehicle
Mass (kg)
RCS (m²)

External: N2YO · Heavens-Above · Gunter

§ Orbital elements

Epoch: 2026-05-24T23:36:19.849248Z

Period
101.36 min
Inclination
98.7166°
Eccentricity
0.0005447
Mean motion
14.20732217 rev/d
Perigee alt
819.0 km
Apogee alt
826.8 km
Semi-major
7,201.0 km
B*
4.0850e-5
RAAN
153.2442°
Arg perigee
40.8483°
Mean anomaly
319.3101°
Rev number
10,980

§ Raw data

WSF-M1 59481U 24070A   26144.98356307  .00000044  00000+0  40850-4 0  99962 59481  98.7166 153.2442 0005447  40.8483 319.3101 14.20732217109809

JSON: /api/v1/satellites/59481 · /tle

For live sub-satellite position, see the globe view (requires WebGL).

§ Visibility from observer

Set your observer location to see the next 7 days of passes ≥ 10°. The values pass through the URL so the page stays shareable.

No JS? Fill the form by hand. The geolocation button needs JavaScript.

§ Radio — SatNOGS DB

ModeDescriptionDownlinkUplink
BPSK Mode S - Payload 2.253 GHz
BPSK Mode S - TTC 2.238 GHz

2 transmitters · refreshed weekly from db.satnogs.org